Capitol Logistics 1172


EETN
Tallinn Airport
Tallinn, EE
EBLG
Liège Airport
Liege, BE

Route Details

Aircraft Information
Primary: Boeing 767-300BDSF
Backup: Not Available
Route Data
Distance: 856nm
Sched. Duration: 2h 00m
Avg. Duration: 2h 49m (+49m)
Times Flown: 10
Recm'd Route: TLL Q11 PIMEX P739 KOLJA M864 BUMIL OSB
Planned Altitude: 36,000ft
Origin Wx: EETN 231620Z 19009KT 9999 SCT020 02/00 Q0999 R08/290195 NOSIG
Dest. Wx: EBLG 231620Z 09003KT 050V200 9999 FEW020 04/00 Q0992 TEMPO FM1800 3500 -RASN BKN008
Notes:

Financial History
Total Freight: 985,790lbs
Average Load: 98,579lbs/flt
Fuel Used: 288,908lbs
Avg. Fuel Used: 28,891lbs/flt
Fuel Expense: $231,126
Avg. Fuel Expense: $23,113
Avg. Fuel Cost: $0.80/lbs
Total Gross Income: $1,469,573
Pilot Pay: $1,980
Total Expenses: $153,351
Total Revenue: $1,078,957
Average Revenue: $146,957.32